TimeCST,TemperatureF,Dew PointF,Humidity,Sea Level PressureIn,VisibilityMPH,Wind Direction,Wind SpeedMPH,Gust SpeedMPH,PrecipitationIn,Events,Conditions,WindDirDegrees,DateUTC
12:08 AM,41.0,29.1,63,-9999,-9999.0,West,10.4,-,N/A,,Unknown,260,2013-01-28 06:08:00
12:28 AM,39.9,30.0,68,-9999,-9999.0,West,6.9,-,N/A,,Unknown,260,2013-01-28 06:28:00
12:48 AM,39.0,29.1,68,-9999,-9999.0,WSW,9.2,-,N/A,,Unknown,240,2013-01-28 06:48:00
1:08 AM,39.9,29.1,65,-9999,-9999.0,West,10.4,-,N/A,,Unknown,260,2013-01-28 07:08:00
1:28 AM,41.0,29.1,63,-9999,-9999.0,WSW,10.4,-,N/A,,Unknown,240,2013-01-28 07:28:00
1:48 AM,39.9,29.1,65,-9999,-9999.0,WSW,11.5,-,N/A,,Unknown,240,2013-01-28 07:48:00
2:08 AM,37.9,26.1,62,-9999,-9999.0,SW,9.2,-,N/A,,Unknown,230,2013-01-28 08:08:00
2:28 AM,39.0,26.1,60,-9999,-9999.0,SW,9.2,-,N/A,,Unknown,230,2013-01-28 08:28:00
2:48 AM,41.0,25.2,53,-9999,-9999.0,SW,11.5,-,N/A,,Unknown,230,2013-01-28 08:48:00
3:08 AM,42.1,25.2,51,-9999,-9999.0,SW,11.5,-,N/A,,Unknown,230,2013-01-28 09:08:00
3:28 AM,41.0,25.2,53,-9999,-9999.0,SW,9.2,-,N/A,,Unknown,230,2013-01-28 09:28:00
3:48 AM,43.0,25.2,49,-9999,-9999.0,SW,11.5,-,N/A,,Unknown,230,2013-01-28 09:48:00
4:08 AM,44.1,24.1,45,-9999,-9999.0,SW,11.5,-,N/A,,Unknown,220,2013-01-28 10:08:00
4:28 AM,45.0,25.2,46,-9999,-9999.0,SW,12.7,-,N/A,,Unknown,230,2013-01-28 10:28:00
4:48 AM,44.1,26.1,49,-9999,-9999.0,SW,10.4,-,N/A,,Unknown,230,2013-01-28 10:48:00
5:08 AM,42.1,24.1,49,-9999,-9999.0,SW,10.4,-,N/A,,Unknown,220,2013-01-28 11:08:00
5:28 AM,39.9,25.2,56,-9999,-9999.0,WSW,9.2,-,N/A,,Unknown,240,2013-01-28 11:28:00
5:48 AM,39.0,25.2,58,-9999,-9999.0,WSW,11.5,-,N/A,,Unknown,250,2013-01-28 11:48:00
6:08 AM,37.9,25.2,60,-9999,-9999.0,SW,6.9,-,N/A,,Unknown,220,2013-01-28 12:08:00
6:28 AM,39.9,25.2,56,-9999,-9999.0,SW,8.1,-,N/A,,Unknown,220,2013-01-28 12:28:00
6:48 AM,42.1,26.1,53,-9999,-9999.0,SW,13.8,-,N/A,,Unknown,220,2013-01-28 12:48:00
7:08 AM,42.1,27.1,55,-9999,-9999.0,SW,17.3,-,N/A,,Unknown,220,2013-01-28 13:08:00
7:28 AM,42.1,28.0,58,-9999,-9999.0,SW,15.0,-,N/A,,Unknown,230,2013-01-28 13:28:00
7:48 AM,43.0,28.0,56,-9999,-9999.0,SW,15.0,-,N/A,,Unknown,220,2013-01-28 13:48:00
8:08 AM,43.0,27.1,54,-9999,-9999.0,SSW,15.0,-,N/A,,Unknown,210,2013-01-28 14:08:00
8:28 AM,44.1,28.0,53,-9999,-9999.0,SW,16.1,-,N/A,,Unknown,220,2013-01-28 14:28:00
8:48 AM,44.1,29.1,56,-9999,-9999.0,SW,16.1,-,N/A,,Unknown,220,2013-01-28 14:48:00
9:08 AM,46.0,29.1,52,-9999,-9999.0,SSW,16.1,-,N/A,,Unknown,210,2013-01-28 15:08:00
9:28 AM,46.9,30.0,52,-9999,-9999.0,SSW,15.0,-,N/A,,Unknown,210,2013-01-28 15:28:00
9:48 AM,51.1,31.1,46,-9999,-9999.0,SW,15.0,-,N/A,,Unknown,220,2013-01-28 15:48:00
10:08 AM,53.1,31.1,43,-9999,-9999.0,SW,17.3,-,N/A,,Unknown,220,2013-01-28 16:08:00
10:28 AM,54.0,33.1,45,-9999,-9999.0,SW,16.1,-,N/A,,Unknown,220,2013-01-28 16:28:00
10:48 AM,57.9,33.1,39,-9999,-9999.0,SSW,20.7,-,N/A,,Unknown,210,2013-01-28 16:48:00
11:08 AM,60.1,33.1,36,-9999,-9999.0,SSW,18.4,-,N/A,,Unknown,200,2013-01-28 17:08:00
11:28 AM,62.1,33.1,34,-9999,-9999.0,SSW,23.0,-,N/A,,Unknown,210,2013-01-28 17:28:00
11:48 AM,63.0,33.1,33,-9999,-9999.0,SW,20.7,-,N/A,,Unknown,220,2013-01-28 17:48:00
12:08 PM,64.0,32.2,30,-9999,-9999.0,SSW,23.0,-,N/A,,Unknown,210,2013-01-28 18:08:00
12:28 PM,64.9,33.1,31,-9999,-9999.0,SSW,24.2,-,N/A,,Unknown,210,2013-01-28 18:28:00
12:48 PM,64.9,31.1,28,-9999,-9999.0,SSW,24.2,-,N/A,,Unknown,210,2013-01-28 18:48:00
1:08 PM,64.9,32.2,29,-9999,-9999.0,SSW,29.9,-,N/A,,Unknown,210,2013-01-28 19:08:00
1:28 PM,64.9,33.1,31,-9999,-9999.0,SSW,20.7,-,N/A,,Unknown,210,2013-01-28 19:28:00
1:48 PM,66.0,33.1,29,-9999,-9999.0,SSW,20.7,-,N/A,,Unknown,200,2013-01-28 19:48:00
2:08 PM,66.0,32.2,28,-9999,-9999.0,SSW,28.8,-,N/A,,Unknown,200,2013-01-28 20:08:00
2:28 PM,66.0,32.2,28,-9999,-9999.0,SSW,24.2,-,N/A,,Unknown,200,2013-01-28 20:28:00
2:48 PM,66.9,31.1,26,-9999,-9999.0,SSW,24.2,-,N/A,,Unknown,210,2013-01-28 20:48:00
3:08 PM,66.9,30.0,25,-9999,-9999.0,SSW,24.2,-,N/A,,Unknown,210,2013-01-28 21:08:00
3:28 PM,66.9,30.0,25,-9999,-9999.0,SSW,28.8,-,N/A,,Unknown,210,2013-01-28 21:28:00
3:48 PM,66.9,30.0,25,-9999,-9999.0,SSW,24.2,-,N/A,,Unknown,210,2013-01-28 21:48:00
4:08 PM,66.9,29.1,24,-9999,-9999.0,SSW,26.5,-,N/A,,Unknown,210,2013-01-28 22:08:00
4:28 PM,66.9,29.1,24,-9999,-9999.0,SSW,24.2,-,N/A,,Unknown,210,2013-01-28 22:28:00
4:48 PM,66.0,28.0,24,-9999,-9999.0,SSW,26.5,-,N/A,,Unknown,200,2013-01-28 22:48:00
5:08 PM,66.0,29.1,25,-9999,-9999.0,SSW,23.0,-,N/A,,Unknown,200,2013-01-28 23:08:00
5:28 PM,64.9,29.1,26,-9999,-9999.0,SSW,21.9,-,N/A,,Unknown,210,2013-01-28 23:28:00
5:48 PM,64.0,28.0,26,-9999,-9999.0,SSW,21.9,-,N/A,,Unknown,210,2013-01-28 23:48:00
6:08 PM,62.1,28.0,28,-9999,-9999.0,SSW,19.6,-,N/A,,Unknown,210,2013-01-29 00:08:00
6:28 PM,60.1,28.0,30,-9999,-9999.0,SSW,15.0,-,N/A,,Unknown,200,2013-01-29 00:28:00
6:48 PM,59.0,27.1,30,-9999,-9999.0,SSW,13.8,-,N/A,,Unknown,200,2013-01-29 00:48:00
7:08 PM,57.9,28.0,32,-9999,-9999.0,South,12.7,-,N/A,,Unknown,190,2013-01-29 01:08:00
7:28 PM,57.0,27.1,32,-9999,-9999.0,South,13.8,-,N/A,,Unknown,190,2013-01-29 01:28:00
7:48 PM,54.0,27.1,36,-9999,-9999.0,South,11.5,-,N/A,,Unknown,180,2013-01-29 01:48:00
8:08 PM,53.1,27.1,37,-9999,-9999.0,SSW,11.5,-,N/A,,Unknown,200,2013-01-29 02:08:00
8:28 PM,54.0,27.1,36,-9999,-9999.0,SSW,11.5,-,N/A,,Unknown,200,2013-01-29 02:28:00
8:48 PM,54.0,28.0,37,-9999,-9999.0,SSW,11.5,-,N/A,,Unknown,210,2013-01-29 02:48:00
9:08 PM,53.1,26.1,35,-9999,-9999.0,SSW,12.7,-,N/A,,Unknown,210,2013-01-29 03:08:00
9:28 PM,51.1,26.1,38,-9999,-9999.0,SSW,11.5,-,N/A,,Unknown,210,2013-01-29 03:28:00
9:48 PM,52.0,26.1,37,-9999,-9999.0,SW,10.4,-,N/A,,Unknown,220,2013-01-29 03:48:00
10:08 PM,51.1,27.1,40,-9999,-9999.0,SW,11.5,-,N/A,,Unknown,220,2013-01-29 04:08:00
10:28 PM,51.1,27.1,40,-9999,-9999.0,SW,11.5,-,N/A,,Unknown,230,2013-01-29 04:28:00
10:48 PM,52.0,26.1,37,-9999,-9999.0,SW,11.5,-,N/A,,Unknown,220,2013-01-29 04:48:00
11:08 PM,48.9,26.1,41,-9999,-9999.0,SW,8.1,-,N/A,,Unknown,220,2013-01-29 05:08:00
11:28 PM,52.0,26.1,37,-9999,-9999.0,SW,11.5,-,N/A,,Unknown,230,2013-01-29 05:28:00
11:48 PM,51.1,27.1,40,-9999,-9999.0,SW,11.5,-,N/A,,Unknown,230,2013-01-29 05:48:00